Brenham, TX

7:53 PM CST on February 24, 2017 (GMT -0600)
Brenham

Weather History for K11R - August, 2014

Change the Weather History Date:

Tuesday, August 19, 2014

  Actual Average (KCLL) Record (KCLL)
Temperature  
Mean Temperature 87 °F -  
Max Temperature 98 °F 93 °F 105 °F (1948)
Min Temperature 76 °F 72 °F 66 °F (1927)
Cooling Degree Days 22    
Growing Degree Days 37 (Base 50)    
Moisture  
Dew Point 73 °F    
Average Humidity 72    
Maximum Humidity 96    
Minimum Humidity 34    
Precipitation  
Precipitation 0.00 in - - ()
Sea Level Pressure  
Sea Level Pressure 29.92 in    
Wind  
Wind Speed 6 mph (SSE)    
Max Wind Speed 21 mph    
Max Gust Speed 25 mph    
Visibility 8 miles    
Events Rain , Thunderstorm    
Averages and records for this station are not official NWS values.
T = Trace of Precipitation, MM = Missing Value Source: NWS Daily Summary

Daily Weather History Graph

Daily Weather History Graph

Search for Another Location

Airport or City:

Trip Planner

Search our weather history database for the weather conditions in past years. The results will help you decide how hot, cold, wet, or windy it might be!

Date:

Astronomy

Aug. 19, 2014 Rise Set
Actual Time 6:54 AM CDT 8:02 PM CDT
Civil Twilight 6:29 AM CDT 8:27 PM CDT
Nautical Twilight 6:00 AM CDT 8:57 PM CDT
Astronomical Twilight 5:29 AM CDT 9:27 PM CDT
Moon 1:54 AM CDT (8/19) 3:52 PM CDT (8/19)
Length of Visible Light 13h 57m
Length of Day
13h 07m
Waning Crescent, 29% of the Moon is Illuminated
Aug 19
Waning Crescent
Aug 25
New
Sep 2
First Quarter
Sep 8
Full
Sep 15
Last Quarter

Hourly Weather History & Observations

Time (CDT) Temp. Heat Index Dew Point Humidity Pressure Visibility Wind Dir Wind Speed Gust Speed Precip Events Conditions
12:15 AM 81.5 °F 87.8 °F 75.2 °F 81% 29.92 in 10.0 mi SSE 4.6 mph - N/A   Clear
12:35 AM 81.5 °F 88.0 °F 75.4 °F 82% 29.92 in 7.0 mi SSE 4.6 mph - N/A   Clear
12:55 AM 81.0 °F 87.1 °F 75.6 °F 84% 29.93 in 7.0 mi SSE 4.6 mph - N/A   Clear
1:15 AM 80.1 °F 85.2 °F 75.6 °F 86% 29.94 in 7.0 mi SE 3.5 mph - N/A   Clear
1:35 AM 79.7 °F - 75.9 °F 88% 29.94 in 7.0 mi SSE 4.6 mph - N/A   Clear
1:55 AM 79.5 °F - 76.1 °F 89% 29.93 in 7.0 mi SSE 4.6 mph - N/A   Clear
2:15 AM 79.3 °F - 76.1 °F 90% 29.93 in 7.0 mi SE 4.6 mph - N/A   Clear
2:35 AM 78.8 °F - 76.1 °F 91% 29.92 in 7.0 mi SSE 3.5 mph - N/A   Clear
2:55 AM 78.4 °F - 76.1 °F 92% 29.92 in 7.0 mi Calm Calm - N/A   Scattered Clouds
3:15 AM 77.9 °F - 75.9 °F 94% 29.92 in 7.0 mi Calm Calm - N/A   Mostly Cloudy
3:35 AM 77.9 °F - 76.1 °F 94% 29.92 in 7.0 mi Calm Calm - N/A   Scattered Clouds
3:55 AM 77.4 °F - 75.7 °F 95% 29.92 in 5.0 mi Calm Calm - N/A   Clear
4:15 AM 77.0 °F - 75.4 °F 95% 29.92 in 5.0 mi SE 3.5 mph - N/A   Mostly Cloudy
4:35 AM 77.0 °F - 75.4 °F 95% 29.92 in 5.0 mi Calm Calm - N/A   Scattered Clouds
4:55 AM 77.0 °F - 75.6 °F 95% 29.92 in 5.0 mi Calm Calm - N/A   Mostly Cloudy
5:15 AM 77.0 °F - 75.6 °F 95% 29.92 in 5.0 mi Calm Calm - N/A   Overcast
5:35 AM 76.6 °F - 75.4 °F 96% 29.92 in 3.0 mi Calm Calm - N/A   Overcast
5:55 AM 76.6 °F - 75.4 °F 96% 29.93 in 4.0 mi Calm Calm - N/A   Scattered Clouds
6:15 AM 77.0 °F - 75.7 °F 96% 29.94 in 7.0 mi Calm Calm - N/A   Mostly Cloudy
6:35 AM 76.8 °F - 75.6 °F 96% 29.94 in 7.0 mi Calm Calm - N/A   Mostly Cloudy
6:55 AM 76.8 °F - 75.4 °F 95% 29.95 in 5.0 mi Calm Calm - N/A   Scattered Clouds
7:15 AM 76.3 °F - 75.2 °F 96% 29.95 in 4.0 mi Calm Calm - N/A   Scattered Clouds
7:35 AM 76.3 °F - 75.2 °F 96% 29.96 in 4.0 mi Calm Calm - N/A   Scattered Clouds
7:55 AM 77.2 °F - 76.1 °F 96% 29.96 in 5.0 mi Calm Calm - N/A   Clear
8:15 AM 78.3 °F - 77.0 °F 96% 29.97 in 5.0 mi Calm Calm - N/A   Scattered Clouds
8:35 AM 78.6 °F - 77.0 °F 95% 29.97 in 5.0 mi SSE 3.5 mph - N/A   Scattered Clouds
8:55 AM 80.1 °F 86.1 °F 77.5 °F 92% 29.97 in 7.0 mi SSE 5.8 mph - N/A   Scattered Clouds
9:15 AM 82.9 °F 92.8 °F 77.9 °F 85% 29.97 in 7.0 mi South 6.9 mph - N/A   Clear
9:35 AM 86.2 °F 97.8 °F 77.4 °F 75% 29.97 in 10.0 mi South 11.5 mph - N/A   Scattered Clouds
9:55 AM 85.5 °F 96.3 °F 77.0 °F 76% 29.97 in 7.0 mi SSW 11.5 mph 16.1 mph N/A   Scattered Clouds
10:15 AM 87.1 °F 98.8 °F 77.2 °F 72% 29.97 in 10.0 mi SSW 10.4 mph - N/A   Scattered Clouds
10:35 AM 89.1 °F 99.6 °F 75.6 °F 64% 29.98 in 10.0 mi South 13.8 mph 19.6 mph N/A   Scattered Clouds
10:55 AM 88.7 °F 97.7 °F 74.1 °F 62% 29.98 in 10.0 mi SSW 13.8 mph 23.0 mph N/A   Scattered Clouds
11:15 AM 89.2 °F 97.9 °F 73.8 °F 60% 29.98 in 7.0 mi SW 12.7 mph - N/A   Scattered Clouds
11:35 AM 90.3 °F 98.7 °F 73.4 °F 57% 29.98 in 10.0 mi SSW 12.7 mph 17.3 mph N/A   Scattered Clouds
11:55 AM 92.1 °F 100.5 °F 72.5 °F 53% 29.97 in 10.0 mi SSW 11.5 mph 18.4 mph N/A   Clear
12:15 PM 92.1 °F 99.4 °F 71.6 °F 51% 29.97 in 10.0 mi SSW 10.4 mph - N/A   Clear
12:35 PM 93.6 °F 100.7 °F 70.9 °F 48% 29.95 in 10.0 mi SW 11.5 mph - N/A   Clear
12:55 PM 94.6 °F 101.1 °F 70.0 °F 45% 29.95 in 10.0 mi SSW 11.5 mph 17.3 mph N/A   Clear
1:15 PM 93.9 °F 100.3 °F 70.2 °F 46% 29.94 in 10.0 mi SW 8.1 mph 16.1 mph N/A   Clear
1:35 PM 95.5 °F 102.4 °F 70.2 °F 44% 29.93 in 7.0 mi SSE 15.0 mph 20.7 mph N/A   Clear
1:55 PM 91.4 °F 97.3 °F 70.3 °F 50% 29.92 in 10.0 mi South 3.5 mph - N/A Rain Light Rain
2:15 PM 92.8 °F 99.2 °F 70.5 °F 48% 29.91 in 10.0 mi SE 5.8 mph - N/A Thunderstorm Thunderstorm
2:35 PM 95.2 °F 102.9 °F 71.4 °F 46% 29.90 in 7.0 mi South 8.1 mph - N/A   Clear
2:55 PM 91.8 °F 95.1 °F 67.3 °F 44% 29.90 in 10.0 mi SSW 10.4 mph - N/A   Clear
3:15 PM 96.6 °F 102.1 °F 68.4 °F 40% 29.88 in 10.0 mi SSW 8.1 mph - N/A   Clear
3:35 PM 97.7 °F 103.6 °F 68.7 °F 39% 29.87 in 10.0 mi SE 11.5 mph 20.7 mph N/A   Clear
3:55 PM 97.0 °F 102.8 °F 69.1 °F 40% 29.86 in 10.0 mi ESE 8.1 mph - N/A   Clear
4:15 PM 97.5 °F 102.6 °F 68.0 °F 38% 29.85 in 10.0 mi South 20.7 mph 25.3 mph N/A   Clear
4:35 PM 97.5 °F 100.8 °F 66.0 °F 35% 29.84 in 10.0 mi South 9.2 mph - N/A Thunderstorm Thunderstorm
4:55 PM 98.1 °F 101.2 °F 65.5 °F 34% 29.85 in 10.0 mi SSE 11.5 mph 18.4 mph N/A Thunderstorm Clear
5:15 PM 96.8 °F 101.8 °F 68.0 °F 39% 29.85 in 10.0 mi SE 6.9 mph - N/A   Clear
5:35 PM 95.9 °F 99.6 °F 66.4 °F 38% 29.86 in 10.0 mi SSE 9.2 mph - N/A   Clear
5:55 PM 88.2 °F 96.0 °F 73.2 °F 61% 29.87 in 10.0 mi East 10.4 mph - N/A   Clear
6:15 PM 88.3 °F 97.4 °F 74.1 °F 63% 29.87 in 10.0 mi East 11.5 mph 18.4 mph N/A   Clear
6:35 PM 88.3 °F 96.9 °F 73.9 °F 62% 29.87 in 10.0 mi East 12.7 mph 18.4 mph N/A   Clear
6:55 PM 88.5 °F 96.8 °F 73.4 °F 61% 29.87 in 10.0 mi East 11.5 mph - N/A   Clear
7:15 PM 87.8 °F 95.6 °F 73.4 °F 62% 29.87 in 10.0 mi East 12.7 mph 18.4 mph N/A   Clear
7:35 PM 86.7 °F 94.6 °F 73.6 °F 65% 29.88 in 10.0 mi ESE 15.0 mph 19.6 mph N/A   Clear
7:55 PM 85.3 °F 91.8 °F 72.9 °F 66% 29.89 in 10.0 mi ESE 15.0 mph - N/A   Clear
8:15 PM 84.2 °F 90.3 °F 72.5 °F 68% 29.90 in 10.0 mi East 11.5 mph 18.4 mph N/A   Clear
8:35 PM 82.8 °F 88.2 °F 72.5 °F 71% 29.90 in 10.0 mi ESE 11.5 mph - N/A   Clear
8:55 PM 82.0 °F 87.2 °F 72.7 °F 73% 29.91 in 10.0 mi ESE 8.1 mph - N/A   Clear
9:15 PM 80.6 °F 85.4 °F 73.4 °F 79% 29.92 in 10.0 mi SE 8.1 mph - N/A   Clear
9:35 PM 80.6 °F 85.4 °F 73.4 °F 79% 29.92 in 10.0 mi SE 5.8 mph - N/A   Clear
9:55 PM 80.1 °F 84.1 °F 72.7 °F 78% 29.93 in 10.0 mi SE 6.9 mph - N/A   Clear
10:15 PM 79.3 °F - 72.9 °F 80% 29.94 in 10.0 mi SE 4.6 mph - N/A   Clear
10:35 PM 79.7 °F - 72.9 °F 80% 29.94 in 10.0 mi SE 6.9 mph - N/A   Clear
10:55 PM 79.3 °F - 72.9 °F 80% 29.95 in 10.0 mi SE 4.6 mph - N/A   Clear
11:15 PM 79.7 °F - 72.7 °F 79% 29.95 in 10.0 mi SE 5.8 mph - N/A   Clear
11:35 PM 80.2 °F 84.5 °F 72.9 °F 78% 29.94 in 10.0 mi SSE 8.1 mph - N/A   Clear
11:55 PM 81.1 °F 86.4 °F 73.8 °F 78% 29.94 in 10.0 mi SSE 5.8 mph - N/A   Clear